Regional Weather Roundup
Issued by NWS

Home | Current Version | Previous Version | Text Only | Print | Product List | Glossary Off
Versions: 1 2 3 4 5 6 7 8 9 10 11 12 13 14 15 16 17 18 19 20 21 22 23 24 25 26 27 28 29 30 31 32 33 34 35 36 37 38 39 40 41 42 43 44 45 46 47 48 49 50

000
ASUS43 KFSD 212310
RWRSD

WEATHER ROUNDUP FOR SOUTH DAKOTA
NATIONAL WEATHER SERVICE SIOUX FALLS SD
500 PM CST TUE NOV 21 2017

NOTE: "FAIR" INDICATES FEW OR NO CLOUDS BELOW 12,000 FEET WITH NO
SIGNIFICANT WEATHER AND/OR OBSTRUCTIONS TO VISIBILITY.


SDZ001>005-009-010-012>017-220000-
NORTHWEST AND NORTH CENTRAL SOUTH DAKOTA

CITY           SKY/WX    TMP DP  RH WIND       PRES   REMARKS
BUFFALO          N/A     30  10  43 W5        30.19S WCI  25
FAITH            N/A     24   3  40 NW6       30.30R WCI  17
MOBRIDGE       CLOUDY    22   4  46 NW8       30.32F WCI  12
$$

SDZ012>016-024>037-041>051-057-063-072>074-220000-
SOUTHWEST AND SOUTH CENTRAL SOUTH DAKOTA

CITY           SKY/WX    TMP DP  RH WIND       PRES   REMARKS
RAPID CTY ARPT CLEAR     32  20  61 NE3       30.28S
PIERRE         CLOUDY    23   7  50 NW8       30.37R WCI  14
CUSTER         CLEAR     33  21  61 SW6       30.20R WCI  28
ELLSWORTH AFB  CLEAR     33  22  64 CALM      30.27S
PHILIP         CLEAR     28  12  51 N5        30.33F WCI  23
PINE RIDGE     CLEAR     37  26  64 E3        30.28F
SPEARFISH      FAIR      32  25  74 E3        30.25R
WINNER         FAIR      22  12  65 NW5       30.37F WCI  16
$$

SDZ004>011-016>023-039-040-220000-
NORTHEAST SOUTH DAKOTA

CITY           SKY/WX    TMP DP  RH WIND       PRES   REMARKS
ABERDEEN       CLOUDY    20   6  55 N7        30.37S WCI  11
WATERTOWN      CLEAR     20   6  55 NW10      30.31R WCI   9
BROOKINGS      CLEAR     21   8  57 NW13      30.32R WCI   9
SISSETON         N/A     20   8  60 NW12      30.35R WCI   8
$$

SDZ017-020-022-023-036>040-048>070-220000-
SOUTHEAST SOUTH DAKOTA

CITY           SKY/WX    TMP DP  RH WIND       PRES   REMARKS
SIOUX FALLS    PTCLDY    25   9  50 NW10      30.33R WCI  15
HURON          CLEAR     22   7  52 NW9       30.39R WCI  12
CHAMBERLAIN    CLOUDY    25  11  55 NW8       30.38F WCI  16
MITCHELL       CLEAR     24   7  48 NW9       30.40R WCI  14
YANKTON        CLEAR     25   9  50 NW12      30.37R WCI  14
$$

ABBREVIATIONS USED IN REMARKS
   TC - TEMPERATURE IN CELSIUS
  WCI - WIND CHILL INDEX
   HX - HEAT INDEX
  VSB - VISIBILITY





USA.gov is the U.S. government's official web portal to all federal, state and local government web resources and services.